#timestamp,LO_Frequency,Hit,StdDev 
1698570015.9,286046999.7,N
1698570035.7,286047000.8,N
1698570055.5,286047000.8,N
1698570075.4,286047000.5,N
1698570095.2,286047000.6,N
1698570115.0,286046999.7,N
1698570116.0,286046999.7,N
1698570135.8,286046999.7,N
1698570155.6,286046999.9,N
1698570175.5,286047000.8,N
1698570195.3,286046999.9,N
1698570215.1,286046999.8,N
1698570235.9,286047002.4,N
1698570255.7,286047000.0,N
1698570275.5,286047002.7,N
1698570295.4,286047002.4,N
1698570315.2,286047000.9,N
1698570335.1,286047001.1,N
1698570336.0,286047001.1,N
1698570355.8,286047000.7,N
1698570375.6,286046998.6,N
1698570395.5,286047001.2,N
1698570415.3,286046998.4,N
1698570435.1,286047000.9,N
1698570455.9,286047000.0,N
1698570475.7,286047002.5,N
1698570495.6,286047002.7,N
1698570515.4,286047002.8,N
1698570535.2,286047000.6,N
1698570555.1,286047000.5,N
1698570556.0,286047000.5,N
1698570575.8,286047000.9,N
1698570595.6,286047000.8,N
1698570615.5,286046998.1,N
1698570635.3,286047000.6,N
1698570655.2,286047001.0,N
1698570675.9,286047001.2,N
1698570695.1,286046998.4,N
1698570715.9,286047000.4,N
1698570735.7,286046999.7,N
1698570755.5,286047000.6,N
1698570775.4,286047000.9,N
1698570795.2,286046998.6,N
1698570815.1,286046999.4,N
1698570816.0,286046999.4,N
1698570835.8,286046998.4,N
1698570855.6,286047000.6,N
1698570875.5,286047000.8,N
1698570895.3,286046998.2,N
1698570915.1,286046999.4,N
1698570935.9,286046996.5,N
1698570955.7,286046999.0,N
1698570975.6,286046998.7,N
1698570995.4,286046998.1,N
1698571015.2,286047001.1,N
1698571035.1,286047000.9,N
1698571036.0,286047000.9,N
1698571055.8,286047000.8,N
1698571075.7,286047000.2,N
1698571095.5,286047002.2,N
1698571115.3,286047002.2,N
1698571135.2,286047001.6,N
1698571155.0,286047001.4,N
1698571155.9,286047001.4,N
1698571175.8,286047001.8,N
1698571195.6,286047002.0,N
1698571215.4,286047002.5,N
1698571235.3,286047000.0,N
1698571255.1,286047000.4,N
1698571275.8,286047000.8,N
1698571295.7,286046998.3,N
1698571315.5,286047000.8,N
1698571335.4,286047000.8,N
1698571355.2,286047001.1,N
1698571375.0,286047000.6,N
1698571375.9,286047000.6,N
1698571395.8,286047002.7,N
1698571415.6,286047002.6,N
1698571435.5,286047002.7,N
1698571455.3,286046999.7,N
1698571475.1,286046999.7,N
1698571495.9,286047000.8,N
1698571515.7,286047000.5,N
1698571535.6,286047000.9,N
1698571555.4,286047000.3,N
1698571575.2,286047000.3,N
1698571595.1,286047002.5,N
1698571596.0,286047002.5,N
1698571615.8,286047002.3,N
1698571635.7,286047001.5,N
1698571655.5,286047000.4,N
1698571675.3,286047000.7,N
1698571695.2,286047000.8,N
1698571715.0,286047000.3,N
1698571715.9,286047000.3,N
1698571735.7,286047000.3,N
1698571755.6,286047000.9,N
1698571775.4,286047000.2,N
1698571795.3,286047001.1,N
1698571815.1,286047001.1,N
1698571835.9,286047000.3,N
1698571855.7,286046999.7,N
1698571875.5,286047000.1,N
1698571895.4,286047000.4,N
1698571915.2,286046999.9,N
1698571935.0,286047000.8,N
1698571935.9,286047000.8,N
1698571955.8,286047000.6,N
1698571975.6,286046999.7,N
1698571995.5,286047000.0,N
1698572015.3,286047000.3,N
1698572035.1,286047000.0,N
1698572055.9,286047002.7,Y
1698572075.7,286047000.8,P
1698572095.6,286047000.3,P
1698572115.4,286046998.1,P
1698572135.2,286046998.4,N
1698572155.1,286046998.2,N
1698572156.0,286046998.2,N
1698572175.8,286046998.3,N
1698572195.6,286046999.2,N
1698572215.5,286046998.4,N
1698572235.3,286046998.1,N
1698572255.2,286047000.7,N
1698572275.9,286047000.8,N
1698572295.7,286047000.4,N
1698572315.6,286047000.5,N
1698572335.4,286047000.6,N
1698572355.2,286047000.3,N
1698572375.1,286047002.8,N
1698572376.0,286047002.8,N
1698572395.8,286047002.4,N
1698572415.7,286046999.7,N
1698572435.5,286046999.7,N
1698572455.3,286047002.8,N
1698572475.2,286047000.1,N
1698572495.0,286047002.3,N
1698572495.9,286047002.3,N
1698572515.7,286047002.7,N
1698572535.6,286047001.6,N
1698572555.4,286047002.6,N
1698572575.3,286047000.8,N
1698572595.1,286047000.8,N
1698572596.0,286047000.8,N
1698572615.8,286047001.1,N
1698572635.7,286047000.7,N
1698572655.5,286047001.1,N
1698572675.3,286047000.7,N
1698572695.2,286047000.3,N
1698572715.0,286046999.8,N
1698572715.9,286046999.8,N
1698572735.8,286047000.5,N
1698572755.6,286047000.6,N
1698572775.4,286047000.1,N
1698572795.3,286047000.1,N
1698572815.1,286046999.9,N
1698572835.9,286047001.1,N
1698572855.7,286046996.6,Y
1698572875.5,286046997.9,P
1698572895.4,286046995.5,N
1698572915.2,286046995.7,N
1698572935.0,286046996.1,N
1698572935.9,286046996.1,N
1698572955.8,286046993.6,Y
1698572975.6,286046995.0,P
1698572995.5,286046997.5,N
1698573015.3,286046997.1,N
1698573035.1,286046997.0,Y
1698573055.9,286047002.6,P
1698573075.7,286047002.5,N
1698573095.6,286047001.7,N
1698573115.4,286047001.5,N
1698573135.2,286047002.4,N
1698573155.1,286047000.0,N
1698573156.0,286047000.0,N
1698573175.8,286047001.2,N
1698573195.6,286046998.1,N
1698573215.5,286046998.2,N
1698573235.3,286046998.6,N
1698573255.2,286046999.2,N
1698573275.9,286046999.5,N
1698573295.7,286046998.8,N
1698573315.6,286046998.3,N
1698573335.4,286046999.6,N
1698573355.3,286046996.9,N
1698573375.1,286046999.6,N
1698573376.0,286046999.6,N
1698573395.8,286046996.8,N
1698573415.7,286046997.8,N
1698573435.5,286046996.6,N
1698573455.3,286046997.5,N
1698573475.2,286046997.8,N
1698573495.0,286046995.0,N
1698573495.9,286046995.0,N
1698573515.8,286046997.3,N
1698573535.6,286046997.7,N
1698573555.4,286046997.6,N
1698573575.3,286046999.6,N
1698573595.1,286046998.7,N
